Weather History for Manistique, MI

Change the Weather History Date:

Saturday, September 21, 2013

  Actual Average Record
Temperature  
Mean Temperature 48 °F -  
Max Temperature 55 °F 62 °F 75 °F (1959)
Min Temperature 40 °F 46 °F 26 °F (1956)
Degree Days  
Heating Degree Days 18    
Moisture  
Dew Point 45 °F    
Average Humidity 86    
Maximum Humidity 99    
Minimum Humidity 64    
Precipitation  
Precipitation 0.07 in - - ()
Sea Level Pressure  
Sea Level Pressure 29.81 in    
Wind  
Wind Speed 7 mph (NW)    
Max Wind Speed 16 mph    
Max Gust Speed 24 mph    
Visibility 10 miles    
Events Rain    
Averages and records for this station are not official NWS values.
T = Trace of Precipitation, MM = Missing Value Source: NWS Daily Summary

Daily Weather History Graph

Daily Weather History Graph

Search for Another Location

Airport:

Trip Planner

Search our weather history database for the weather conditions in past years. The results will help you decide how hot, cold, wet, or windy it might be!

Date:

Astronomy

Sep. 21, 2013 Rise Set
Actual Time 7:30 AM EDT 7:43 PM EDT
Civil Twilight 7:00 AM EDT 8:13 PM EDT
Nautical Twilight 6:25 AM EDT 8:48 PM EDT
Astronomical Twilight 5:49 AM EDT 9:24 PM EDT
Moon 8:43 PM EDT (9/21) 9:58 AM EDT (9/21)
Length of Visible Light 13h 12m
Length of Day
12h 13m
Waning Gibbous, 94% of the Moon is Illuminated
Sep 21
Waning Gibbous
Sep 26
Last Quarter
Oct 4
New
Oct 11
First Quarter
Oct 18
Full

Hourly Weather History & Observations

Time (EDT) Temp. Windchill Dew Point Humidity Pressure Visibility Wind Dir Wind Speed Gust Speed Precip Events Conditions
12:16 AM 54.9 °F - 53.6 °F 96% 29.73 in 10.0 mi WNW 5.8 mph - N/A   Overcast
12:36 AM 54.5 °F - 52.7 °F 94% 29.73 in 10.0 mi NW 5.8 mph - N/A   Overcast
12:55 AM 54.0 °F - 52.7 °F 95% 29.74 in 10.0 mi WNW 5.8 mph - N/A   Overcast
1:16 AM 54.0 °F - 52.7 °F 95% 29.74 in 10.0 mi WNW 5.8 mph - N/A   Overcast
1:35 AM 53.8 °F - 52.9 °F 97% 29.74 in 7.0 mi NNW 3.5 mph - N/A   Light Drizzle
1:56 AM 53.6 °F - 52.9 °F 97% 29.73 in 7.0 mi NW 4.6 mph - N/A Rain Rain
2:16 AM 53.6 °F - 52.9 °F 97% 29.74 in 10.0 mi Calm Calm - N/A   Overcast
2:36 AM 53.6 °F - 52.9 °F 97% 29.74 in 7.0 mi NNW 3.5 mph - N/A   Overcast
2:56 AM 53.2 °F - 52.2 °F 96% 29.73 in 10.0 mi North 4.6 mph - N/A   Overcast
3:15 AM 52.9 °F - 51.8 °F 96% 29.74 in 10.0 mi North 3.5 mph - N/A   Overcast
3:36 AM 52.7 °F - 51.8 °F 97% 29.74 in 10.0 mi Calm Calm - N/A   Overcast
3:56 AM 52.7 °F - 52.0 °F 97% 29.74 in 10.0 mi Calm Calm - N/A   Overcast
4:15 AM 52.2 °F - 50.9 °F 95% 29.74 in 10.0 mi WNW 4.6 mph - N/A   Overcast
4:36 AM 49.3 °F - 48.6 °F 97% 29.75 in 10.0 mi WNW 3.5 mph - N/A   Scattered Clouds
4:56 AM 47.1 °F - 46.6 °F 98% 29.75 in 10.0 mi WNW 4.6 mph - N/A   Scattered Clouds
5:15 AM 48.0 °F - 47.8 °F 99% 29.75 in 10.0 mi WNW 4.6 mph - N/A   Mostly Cloudy
5:36 AM 50.0 °F - 49.5 °F 98% 29.75 in 10.0 mi WNW 5.8 mph - N/A   Overcast
5:56 AM 50.2 °F - 49.5 °F 97% 29.75 in 10.0 mi West 5.8 mph - N/A   Overcast
6:16 AM 50.0 °F - 49.1 °F 97% 29.75 in 10.0 mi West 4.6 mph - N/A   Overcast
6:36 AM 48.6 °F - 48.2 °F 99% 29.75 in 10.0 mi West 5.8 mph - N/A   Overcast
6:55 AM 49.5 °F - 48.7 °F 97% 29.76 in 10.0 mi WNW 5.8 mph - N/A   Overcast
7:16 AM 49.3 °F - 48.6 °F 97% 29.76 in 10.0 mi NW 5.8 mph - N/A   Overcast
7:36 AM 48.7 °F - 48.2 °F 98% 29.77 in 10.0 mi WNW 4.6 mph - N/A   Overcast
7:55 AM 49.3 °F - 48.7 °F 98% 29.77 in 4.0 mi NW 5.8 mph - N/A   Overcast
8:16 AM 49.5 °F - 48.6 °F 97% 29.78 in 4.0 mi NNW 6.9 mph - N/A Rain Rain
8:36 AM 49.6 °F - 48.7 °F 97% 29.78 in 10.0 mi NW 5.8 mph - N/A   Mostly Cloudy
8:55 AM 50.9 °F - 49.5 °F 95% 29.78 in 10.0 mi NW 5.8 mph - N/A   Mostly Cloudy
9:16 AM 50.5 °F - 48.4 °F 92% 29.78 in 10.0 mi NW 9.2 mph 16.1 mph N/A   Overcast
9:35 AM 50.5 °F - 48.0 °F 91% 29.79 in 10.0 mi NNW 8.1 mph - N/A   Overcast
9:56 AM 52.0 °F - 48.7 °F 89% 29.78 in 10.0 mi NW 9.2 mph - N/A   Mostly Cloudy
10:16 AM 52.7 °F - 48.0 °F 84% 29.79 in 10.0 mi NW 10.4 mph 16.1 mph N/A   Mostly Cloudy
10:36 AM 52.9 °F - 46.8 °F 80% 29.79 in 10.0 mi NW 12.7 mph 18.4 mph N/A   Overcast
10:56 AM 51.8 °F - 45.5 °F 79% 29.79 in 10.0 mi NW 12.7 mph 18.4 mph N/A   Overcast
11:15 AM 51.3 °F - 45.7 °F 81% 29.80 in 10.0 mi NW 12.7 mph 20.7 mph N/A   Overcast
11:36 AM 53.4 °F - 45.5 °F 75% 29.80 in 10.0 mi NW 9.2 mph 17.3 mph N/A   Mostly Cloudy
11:56 AM 52.2 °F - 43.2 °F 71% 29.80 in 10.0 mi NNW 11.5 mph 24.2 mph N/A   Overcast
12:15 PM 51.3 °F - 43.0 °F 73% 29.81 in 10.0 mi NW 12.7 mph - N/A   Overcast
12:36 PM 50.0 °F - 42.1 °F 74% 29.82 in 10.0 mi NW 16.1 mph 24.2 mph N/A   Overcast
12:56 PM 54.0 °F - 43.3 °F 67% 29.82 in 10.0 mi NNW 11.5 mph - N/A   Mostly Cloudy
1:16 PM 52.5 °F - 41.2 °F 65% 29.82 in 10.0 mi NNW 11.5 mph 17.3 mph N/A   Mostly Cloudy
1:36 PM 52.0 °F - 41.4 °F 67% 29.82 in 10.0 mi WNW 12.7 mph 17.3 mph N/A   Overcast
1:56 PM 50.5 °F - 43.0 °F 75% 29.83 in 10.0 mi NW 11.5 mph 20.7 mph N/A   Overcast
2:16 PM 51.6 °F - 42.3 °F 70% 29.83 in 10.0 mi WNW 13.8 mph 17.3 mph N/A   Overcast
2:36 PM 49.3 °F - 43.0 °F 79% 29.83 in 7.0 mi NNW 8.1 mph - N/A Rain Rain
2:56 PM 50.9 °F - 42.8 °F 74% 29.83 in 10.0 mi NW 15.0 mph 23.0 mph N/A   Overcast
3:16 PM 55.2 °F - 43.3 °F 64% 29.83 in 10.0 mi NW 12.7 mph 21.9 mph N/A   Overcast
3:35 PM 50.0 °F - 42.8 °F 76% 29.84 in 10.0 mi NW 12.7 mph 19.6 mph N/A   Overcast
3:56 PM 51.1 °F - 41.7 °F 70% 29.84 in 10.0 mi NW 13.8 mph 18.4 mph N/A   Overcast
4:15 PM 50.4 °F - 42.8 °F 75% 29.84 in 10.0 mi North 10.4 mph 17.3 mph N/A   Overcast
4:36 PM 50.4 °F - 42.3 °F 74% 29.85 in 10.0 mi NNW 15.0 mph 21.9 mph N/A   Overcast
4:56 PM 50.0 °F - 41.2 °F 72% 29.85 in 10.0 mi NW 10.4 mph 17.3 mph N/A   Overcast
5:15 PM 50.5 °F - 41.4 °F 71% 29.85 in 10.0 mi NNW 15.0 mph 20.7 mph N/A   Overcast
5:36 PM 49.6 °F - 41.9 °F 75% 29.85 in 10.0 mi NNW 8.1 mph - N/A   Overcast
5:55 PM 49.5 °F - 40.8 °F 72% 29.86 in 10.0 mi NW 12.7 mph 18.4 mph N/A   Mostly Cloudy
6:16 PM 49.5 °F - 40.5 °F 71% 29.86 in 10.0 mi NW 16.1 mph 21.9 mph N/A   Overcast
6:36 PM 48.6 °F - 40.6 °F 74% 29.87 in 10.0 mi NW 16.1 mph 21.9 mph N/A   Overcast
6:56 PM 47.5 °F - 40.1 °F 76% 29.87 in 10.0 mi NW 13.8 mph 19.6 mph N/A   Scattered Clouds
7:16 PM 46.8 °F - 40.5 °F 79% 29.87 in 10.0 mi NW 9.2 mph - N/A   Scattered Clouds
7:36 PM 46.6 °F - 41.4 °F 82% 29.88 in 10.0 mi NW 10.4 mph 17.3 mph N/A   Overcast
7:56 PM 45.7 °F 41.5 °F 40.8 °F 83% 29.88 in 10.0 mi WNW 8.1 mph 16.1 mph N/A   Mostly Cloudy
8:16 PM 44.2 °F 39.2 °F 40.1 °F 85% 29.88 in 10.0 mi NW 9.2 mph - N/A   Scattered Clouds
8:35 PM 44.1 °F 40.8 °F 40.8 °F 88% 29.89 in 10.0 mi NW 5.8 mph - N/A   Mostly Cloudy
8:56 PM 43.7 °F 39.7 °F 41.0 °F 90% 29.90 in 10.0 mi WNW 6.9 mph - N/A   Mostly Cloudy
9:16 PM 43.9 °F 39.9 °F 41.2 °F 90% 29.91 in 10.0 mi WNW 6.9 mph - N/A   Mostly Cloudy
9:35 PM 43.5 °F 40.9 °F 41.2 °F 91% 29.91 in 10.0 mi WNW 4.6 mph - N/A   Mostly Cloudy
9:56 PM 42.8 °F 40.1 °F 41.0 °F 93% 29.91 in 10.0 mi WNW 4.6 mph - N/A   Scattered Clouds
10:16 PM 40.6 °F 37.5 °F 39.2 °F 95% 29.92 in 10.0 mi West 4.6 mph - N/A   Clear
10:36 PM 40.5 °F 36.5 °F 39.4 °F 96% 29.92 in 10.0 mi WNW 5.8 mph - N/A   Clear
10:56 PM 40.1 °F 36.1 °F 38.8 °F 95% 29.93 in 10.0 mi West 5.8 mph - N/A   Clear
11:16 PM 41.4 °F 37.6 °F 40.1 °F 95% 29.93 in 10.0 mi WNW 5.8 mph - N/A   Scattered Clouds
11:36 PM 41.5 °F 38.6 °F 39.9 °F 94% 29.93 in 10.0 mi WNW 4.6 mph - N/A   Mostly Cloudy
11:56 PM 40.6 °F 36.7 °F 39.0 °F 94% 29.94 in 10.0 mi NW 5.8 mph - N/A   Scattered Clouds